St. Charles, IL

1:20 PM CDT on June 23, 2017 (GMT -0500)
Saint Charles County Smartt

Weather History for KSET - January, 2013

Change the Weather History Date:

Tuesday, January 8, 2013

  Actual Average (KSTL) Record (KSTL)
Temperature  
Mean Temperature 39 °F -  
Max Temperature 53 °F 33 °F 71 °F (2006)
Min Temperature 25 °F 18 °F -7 °F (1976)
Degree Days  
Heating Degree Days 26    
Moisture  
Dew Point 29 °F    
Average Humidity 72    
Maximum Humidity 89    
Minimum Humidity 38    
Precipitation  
Precipitation 0.00 in - - ()
Sea Level Pressure  
Sea Level Pressure 30.15 in    
Wind  
Wind Speed 6 mph (ESE)    
Max Wind Speed 12 mph    
Max Gust Speed -    
Visibility 8 miles    
Events      
Averages and records for this station are not official NWS values.
T = Trace of Precipitation, MM = Missing Value Source: NWS Daily Summary

Daily Weather History Graph

Daily Weather History Graph

Search for Another Location

Airport or City:

Trip Planner

Search our weather history database for the weather conditions in past years. The results will help you decide how hot, cold, wet, or windy it might be!

Date:

Astronomy

Jan. 08, 2013 Rise Set
Actual Time 7:20 AM CST 4:56 PM CST
Civil Twilight 6:50 AM CST 5:26 PM CST
Nautical Twilight 6:17 AM CST 5:59 PM CST
Astronomical Twilight 5:45 AM CST 6:31 PM CST
Moon 3:53 AM CST (1/8) 1:59 PM CST (1/8)
Length of Visible Light 10h 35m
Length of Day
9h 36m
Waning Crescent, 13% of the Moon is Illuminated
Jan 8
Waning Crescent
Jan 11
New
Jan 18
First Quarter
Jan 26
Full
Feb 3
Last Quarter

Hourly Weather History & Observations

Time (CST) Temp. Windchill Dew Point Humidity Pressure Visibility Wind Dir Wind Speed Gust Speed Precip Events Conditions
12:54 AM 28.9 °F 22.8 °F 25.0 °F 85% 30.16 in 7.0 mi East 5.8 mph - N/A   Clear
1:54 AM 28.9 °F 22.8 °F 26.1 °F 89% 30.16 in 6.0 mi ESE 5.8 mph - N/A   Clear
2:54 AM 28.0 °F 20.0 °F 24.1 °F 85% 30.17 in 6.0 mi East 8.1 mph - N/A   Clear
3:54 AM 27.0 °F 20.5 °F 23.0 °F 85% 30.18 in 6.0 mi East 5.8 mph - N/A   Clear
4:54 AM 25.0 °F 17.1 °F 21.9 °F 88% 30.18 in 6.0 mi East 6.9 mph - N/A   Clear
5:54 AM 25.0 °F 18.1 °F 21.9 °F 88% 30.19 in 6.0 mi East 5.8 mph - N/A   Clear
6:54 AM 27.0 °F 19.5 °F 24.1 °F 89% 30.20 in 6.0 mi East 6.9 mph - N/A   Clear
7:54 AM 28.9 °F 22.8 °F 25.0 °F 85% 30.20 in 4.0 mi East 5.8 mph - N/A   Clear
8:54 AM 32.0 °F 26.4 °F 28.0 °F 85% 30.22 in 4.0 mi East 5.8 mph - N/A   Clear
9:54 AM 36.0 °F 33.3 °F 28.9 °F 76% 30.22 in 6.0 mi East 3.5 mph - N/A   Haze
10:54 AM 39.9 °F 37.8 °F 30.0 °F 68% 30.19 in 9.0 mi SE 3.5 mph - N/A   Clear
11:54 AM 44.1 °F 40.8 °F 32.0 °F 63% 30.16 in 9.0 mi East 5.8 mph - N/A   Clear
12:54 PM 48.0 °F - 30.9 °F 52% 30.14 in 10.0 mi Variable 3.5 mph - N/A   Clear
1:54 PM 50.0 °F - 33.1 °F 52% 30.10 in 10.0 mi East 8.1 mph - N/A   Clear
2:54 PM 53.1 °F - 28.0 °F 38% 30.09 in 10.0 mi SSE 11.5 mph - N/A   Clear
3:54 PM 50.0 °F - 30.0 °F 46% 30.09 in 10.0 mi SE 9.2 mph - N/A   Clear
4:54 PM 44.1 °F 38.6 °F 30.9 °F 60% 30.10 in 10.0 mi SE 10.4 mph - N/A   Partly Cloudy
5:54 PM 42.1 °F 36.1 °F 30.9 °F 65% 30.10 in 10.0 mi SE 10.4 mph - N/A   Clear
6:54 PM 39.9 °F 35.1 °F 32.0 °F 73% 30.11 in 10.0 mi ESE 6.9 mph - N/A   Overcast
7:54 PM 43.0 °F 37.7 °F 32.0 °F 65% 30.12 in 10.0 mi SSE 9.2 mph - N/A   Overcast
8:54 PM 43.0 °F 38.2 °F 33.1 °F 68% 30.12 in 10.0 mi SSE 8.1 mph - N/A   Overcast
9:54 PM 42.1 °F 37.1 °F 33.1 °F 70% 30.13 in 10.0 mi SSE 8.1 mph - N/A   Overcast
11:54 PM 41.0 °F - 33.1 °F 73% 30.17 in 10.0 mi Calm Calm - N/A   Overcast